.
WxDataArchive / Data Records for 2015-08-11
2015-08-10 August 2015 2015-08-12

Data Records for Tuesday, 11 August 2015

Time	Temp	Chill	HIndex	Humid	Dewpt	 Wind 	HiWind	WindDir	Rain 	Barom
-----	----	-----	------	-----	-----	------	------	-------	-----	-----
00:00	70.8	70.8	70.8	86	66.4	0	0	---	0.00	29.811 
00:05	70.8	70.8	70.8	87	66.7	0	0	---	0.00	29.811 
00:10	70.6	70.6	70.6	87	66.5	0	1	315	0.00	29.811 
00:15	70.4	70.4	70.4	87	66.3	0	1	315	0.00	29.811 
00:20	70.4	70.4	70.4	88	66.7	0	1	315	0.00	29.811 
00:25	70.4	70.4	70.4	88	66.7	0	1	315	0.00	29.811 
00:30	70.3	70.3	70.3	88	66.6	0	1	315	0.00	29.812 
00:35	70.3	70.3	70.3	88	66.6	0	1	315	0.00	29.812 
00:40	70.3	70.3	70.3	88	66.6	0	2	315	0.00	29.812 
00:45	70.1	70.1	70.1	88	66.4	0	1	315	0.00	29.814 
00:50	70.1	70.1	70.1	88	66.4	0	2	315	0.00	29.814 
00:55	69.9	69.9	69.9	88	66.2	1	3	315	0.00	29.814 
01:00	69.9	69.9	69.9	88	66.2	0	2	315	0.00	29.813 
01:05	69.8	69.8	69.8	89	66.4	1	2	315	0.00	29.813 
01:10	69.8	69.8	69.8	89	66.4	1	2	315	0.00	29.813 
01:15	69.6	69.6	69.6	89	66.2	0	1	315	0.00	29.813 
01:20	69.4	69.4	69.4	89	66.0	0	1	315	0.00	29.813 
01:25	69.4	69.4	69.4	89	66.0	0	2	315	0.00	29.813 
01:30	69.3	69.3	69.3	89	65.9	0	1	315	0.00	29.819 
01:35	69.1	69.1	69.1	89	65.7	0	1	315	0.00	29.819 
01:40	69.1	69.1	69.1	89	65.7	0	2	315	0.00	29.819 
01:45	68.9	68.9	68.9	90	65.8	0	2	315	0.00	29.818 
01:50	68.9	68.9	68.9	90	65.8	0	2	315	0.00	29.818 
01:55	68.8	68.8	68.8	90	65.7	0	2	315	0.00	29.818 
02:00	68.8	68.8	68.8	90	65.7	0	1	315	0.00	29.816 
02:05	68.8	68.8	68.8	90	65.7	0	1	315	0.00	29.816 
02:10	68.6	68.6	68.6	90	65.5	0	0	---	0.00	29.816 
02:15	68.6	68.6	68.6	90	65.5	0	1	315	0.00	29.817 
02:20	68.6	68.6	68.6	90	65.5	0	1	315	0.00	29.817 
02:25	68.4	68.4	68.4	90	65.3	0	1	315	0.00	29.817 
02:30	68.4	68.4	68.4	90	65.3	0	1	315	0.00	29.819 
02:35	68.4	68.4	68.4	91	65.7	0	2	315	0.00	29.819 
02:40	68.3	68.3	68.3	91	65.6	0	1	315	0.00	29.819 
02:45	68.3	68.3	68.3	91	65.6	0	2	315	0.00	29.819 
02:50	68.3	68.3	68.3	91	65.6	0	1	315	0.00	29.819 
02:55	68.1	68.1	68.1	91	65.4	0	1	315	0.00	29.819 
03:00	68.1	68.1	68.1	91	65.4	0	2	315	0.00	29.819 
03:05	67.9	67.9	67.9	91	65.2	0	1	315	0.00	29.819 
03:10	67.9	67.9	67.9	92	65.5	0	1	315	0.00	29.819 
03:15	67.9	67.9	67.9	92	65.5	0	1	315	0.00	29.829 
03:20	67.8	67.8	67.8	92	65.4	0	2	315	0.00	29.829 
03:25	67.8	67.8	67.8	92	65.4	0	1	315	0.00	29.829 
03:30	67.6	67.6	67.6	92	65.2	0	1	315	0.00	29.827 
03:35	67.6	67.6	67.6	92	65.2	0	1	315	0.00	29.827 
03:40	67.6	67.6	67.6	92	65.2	0	1	315	0.00	29.827 
03:45	67.4	67.4	67.4	92	65.0	0	1	315	0.00	29.833 
03:50	67.4	67.4	67.4	92	65.0	0	1	315	0.00	29.833 
03:55	67.3	67.3	67.3	92	64.9	0	1	315	0.00	29.833 
04:00	67.3	67.3	67.3	92	64.9	0	1	315	0.00	29.834 
04:05	67.3	67.3	67.3	92	64.9	0	1	315	0.00	29.834 
04:10	67.1	67.1	67.1	92	64.7	0	1	315	0.00	29.834 
04:15	67.1	67.1	67.1	93	65.0	0	1	315	0.00	29.838 
04:20	67.1	67.1	67.1	93	65.0	0	1	315	0.00	29.838 
04:25	67.1	67.1	67.1	93	65.0	0	2	315	0.00	29.838 
04:30	67.1	67.1	67.1	93	65.0	0	1	315	0.00	29.838 
04:35	66.9	66.9	66.9	93	64.8	0	1	315	0.00	29.838 
04:40	66.9	66.9	66.9	93	64.8	0	1	315	0.00	29.838 
04:45	66.9	66.9	66.9	93	64.8	0	1	315	0.00	29.840 
04:50	67.1	67.1	67.1	93	65.0	1	4	338	0.00	29.840 
04:55	67.1	67.1	67.1	93	65.0	0	3	315	0.00	29.840 
05:00	67.1	67.1	67.1	93	65.0	0	2	315	0.00	29.840 
05:05	67.1	67.1	67.1	93	65.0	0	1	315	0.00	29.840 
05:10	67.1	67.1	67.1	93	65.0	0	1	315	0.00	29.840 
05:15	67.1	67.1	67.1	93	65.0	0	1	315	0.00	29.845 
05:20	66.9	66.9	66.9	93	64.8	0	2	315	0.00	29.845 
05:25	66.9	66.9	66.9	93	64.8	0	2	315	0.00	29.845 
05:30	66.9	66.9	66.9	93	64.8	0	1	315	0.00	29.847 
05:35	66.9	66.9	66.9	93	64.8	0	1	315	0.00	29.847 
05:40	66.8	66.8	66.8	93	64.7	0	1	315	0.00	29.847 
05:45	66.8	66.8	66.8	93	64.7	0	1	315	0.00	29.850 
05:50	66.8	66.8	66.8	93	64.7	0	1	315	0.00	29.850 
05:55	66.6	66.6	66.6	93	64.5	0	1	315	0.00	29.850 
06:00	66.6	66.6	66.6	93	64.5	0	1	315	0.00	29.853 
06:05	66.6	66.6	66.6	93	64.5	0	1	315	0.00	29.853 
06:10	66.4	66.4	66.4	93	64.3	0	1	315	0.00	29.853 
06:15	66.4	66.4	66.4	93	64.3	0	1	315	0.00	29.861 
06:20	66.4	66.4	66.4	94	64.6	0	2	315	0.00	29.861 
06:25	66.4	66.4	66.4	94	64.6	0	1	315	0.00	29.861 
06:30	66.4	66.4	66.4	94	64.6	0	1	315	0.00	29.871 
06:35	66.4	66.4	66.4	94	64.6	0	1	315	0.00	29.871 
06:40	66.4	66.4	66.4	94	64.6	0	1	315	0.00	29.871 
06:45	66.4	66.4	66.4	94	64.6	0	1	315	0.00	29.877 
06:50	66.4	66.4	66.4	94	64.6	0	3	315	0.00	29.877 
06:55	66.4	66.4	66.4	94	64.6	0	1	315	0.00	29.877 
07:00	66.3	66.3	66.3	94	64.5	0	1	315	0.00	29.887 
07:05	66.3	66.3	66.3	94	64.5	0	1	315	0.00	29.887 
07:10	66.3	66.3	66.3	94	64.5	0	1	315	0.00	29.887 
07:15	66.3	66.3	66.3	94	64.5	0	2	315	0.00	29.891 
07:20	66.3	66.3	66.3	94	64.5	0	1	315	0.00	29.891 
07:25	66.3	66.3	66.3	94	64.5	0	1	315	0.00	29.891 
07:30	66.3	66.3	66.3	94	64.5	0	1	315	0.00	29.900 
07:35	66.4	66.4	66.4	94	64.6	0	0	---	0.00	29.900 
07:40	66.4	66.4	66.4	94	64.6	0	1	315	0.00	29.900 
07:45	66.6	66.6	66.6	94	64.8	0	1	315	0.00	29.904 
07:50	66.8	66.8	66.8	94	65.0	0	2	315	0.00	29.904 
07:55	66.8	66.8	66.8	93	64.7	0	1	315	0.00	29.904 
08:00	66.8	66.8	66.8	93	64.7	1	3	315	0.00	29.908 
08:05	66.9	66.9	66.9	93	64.8	1	3	315	0.00	29.908 
08:10	66.9	66.9	66.9	93	64.8	1	2	315	0.00	29.908 
08:15	66.8	66.8	66.8	93	64.7	2	5	315	0.00	29.919 
08:20	66.8	66.8	66.8	92	64.4	2	5	292	0.00	29.919 
08:25	66.9	66.9	66.9	92	64.5	1	3	292	0.00	29.919 
08:30	66.9	66.9	66.9	92	64.5	1	3	292	0.00	29.920 
08:35	67.1	67.1	67.1	92	64.7	1	3	292	0.00	29.920 
08:40	67.4	67.4	67.4	92	65.0	0	2	292	0.00	29.920 
08:45	67.6	67.6	67.6	92	65.2	1	3	292	0.00	29.918 
08:50	67.8	67.8	67.8	92	65.4	1	4	292	0.00	29.918 
08:55	67.8	67.8	67.8	91	65.1	1	4	292	0.00	29.918 
09:00	67.9	67.9	67.9	91	65.2	1	4	315	0.00	29.929 
09:05	68.3	68.3	68.3	91	65.6	1	4	292	0.00	29.929 
09:10	68.8	68.8	68.8	90	65.7	1	4	292	0.00	29.929 
09:15	68.9	68.9	68.9	89	65.5	1	3	292	0.00	29.935 
09:20	68.6	68.6	68.6	88	64.9	1	4	338	0.00	29.935 
09:25	69.1	69.1	69.1	88	65.4	1	4	338	0.00	29.935 
09:30	69.6	69.6	69.6	87	65.6	1	3	315	0.00	29.935 
09:35	69.9	69.9	69.9	85	65.2	1	3	315	0.00	29.935 
09:40	70.4	70.4	70.4	84	65.3	1	4	315	0.00	29.935 
09:45	70.4	70.4	70.4	83	65.0	1	4	315	0.00	29.939 
09:50	70.6	70.6	70.6	82	64.8	2	5	315	0.00	29.939 
09:55	70.6	70.6	70.6	81	64.5	1	4	315	0.00	29.939 
10:00	70.8	70.8	70.8	81	64.7	1	4	315	0.00	29.941 
10:05	71.1	71.1	71.1	80	64.6	1	4	315	0.00	29.941 
10:10	71.5	71.5	71.5	78	64.3	2	5	315	0.00	29.941 
10:15	72.0	72.0	72.0	76	64.0	2	6	338	0.00	29.944 
10:20	72.3	72.3	72.3	75	63.9	2	5	315	0.00	29.944 
10:25	72.5	72.5	72.5	73	63.3	2	5	292	0.00	29.944 
10:30	73.0	73.0	73.0	73	63.8	1	3	315	0.00	29.943 
10:35	73.5	73.5	73.5	72	63.9	1	4	292	0.00	29.943 
10:40	73.9	73.9	73.9	72	64.3	1	4	292	0.00	29.943 
10:45	74.2	74.2	74.2	70	63.8	2	6	315	0.00	29.946 
10:50	74.2	74.2	74.2	64	61.2	2	6	315	0.00	29.946 
10:55	74.4	74.4	74.4	63	61.0	2	5	292	0.00	29.946 
11:00	74.6	74.6	74.6	63	61.2	2	4	338	0.00	29.949 
11:05	74.9	74.9	74.9	62	61.0	2	4	338	0.00	29.949 
11:10	74.9	74.9	74.9	62	61.0	2	6	292	0.00	29.949 
11:15	75.3	75.3	77.5	62	61.4	2	6	292	0.00	29.950 
11:20	75.6	75.6	77.7	62	61.6	1	5	315	0.00	29.950 
11:25	75.8	75.8	77.8	61	61.4	1	6	338	0.00	29.950 
11:30	75.6	75.6	77.7	60	60.7	2	6	292	0.00	29.950 
11:35	76.1	76.1	78.0	62	62.1	1	3	292	0.00	29.950 
11:40	76.7	76.7	78.5	59	61.3	1	3	292	0.00	29.950 
11:45	76.7	76.7	78.5	56	59.8	2	5	338	0.00	29.950 
11:50	76.7	76.7	78.5	57	60.3	2	7	338	0.00	29.950 
11:55	76.7	76.7	78.5	56	59.8	2	4	315	0.00	29.950 
12:00	76.7	76.7	78.5	58	60.8	2	5	315	0.00	29.953 
12:05	76.8	76.8	78.6	59	61.4	1	4	315	0.00	29.953 
12:10	77.4	77.4	79.0	56	60.5	1	5	270	0.00	29.953 
12:15	77.2	77.2	78.8	53	58.7	3	5	315	0.00	29.956 
12:20	77.4	77.4	79.0	54	59.4	2	5	292	0.00	29.956 
12:25	77.6	77.6	79.2	55	60.1	1	4	292	0.00	29.956 
12:30	78.3	78.3	79.7	54	60.3	1	4	0	0.00	29.951 
12:35	78.6	78.6	79.8	52	59.5	2	6	315	0.00	29.951 
12:40	78.8	78.8	79.9	52	59.7	2	6	292	0.00	29.951 
12:45	79.0	79.0	80.0	50	58.7	2	4	315	0.00	29.951 
12:50	78.8	78.8	79.6	47	56.8	3	7	292	0.00	29.951 
12:55	78.5	78.5	79.6	50	58.3	2	7	292	0.00	29.951 
13:00	78.3	78.3	79.4	50	58.1	3	7	292	0.00	29.952 
13:05	78.3	78.3	79.4	50	58.1	2	6	315	0.00	29.952 
13:10	78.8	78.8	79.9	51	59.1	1	4	315	0.00	29.952 
13:15	79.0	79.0	80.0	51	59.3	1	4	315	0.00	29.952 
13:20	78.8	78.8	79.8	50	58.6	3	7	315	0.00	29.952 
13:25	78.8	78.8	79.8	50	58.6	2	4	292	0.00	29.952 
13:30	79.0	79.0	80.0	51	59.3	1	4	292	0.00	29.953 
13:35	79.0	79.0	79.8	47	57.0	3	9	292	0.00	29.953 
13:40	79.0	79.0	79.8	47	57.0	2	5	315	0.00	29.953 
13:45	79.2	79.2	80.1	49	58.4	2	6	270	0.00	29.952 
13:50	79.4	79.4	80.0	46	56.8	2	9	338	0.00	29.952 
13:55	79.4	79.4	80.1	47	57.4	2	7	315	0.00	29.952 
14:00	79.4	79.4	80.2	49	58.5	1	4	338	0.00	29.953 
14:05	79.6	79.6	80.4	49	58.7	1	4	292	0.00	29.953 
14:10	79.8	79.8	80.5	49	58.9	1	4	292	0.00	29.953 
14:15	79.9	79.9	80.6	49	59.0	2	6	315	0.00	29.952 
14:20	79.9	79.9	80.6	49	59.0	2	5	292	0.00	29.952 
14:25	79.9	79.9	80.4	46	57.2	3	6	292	0.00	29.952 
14:30	79.9	79.9	80.4	47	57.8	2	7	338	0.00	29.951 
14:35	79.9	79.9	80.5	48	58.4	2	5	338	0.00	29.951 
14:40	80.1	80.1	80.7	48	58.6	2	7	338	0.00	29.951 
14:45	79.9	79.9	80.5	48	58.4	1	6	338	0.00	29.952 
14:50	79.9	79.9	80.5	48	58.4	3	7	338	0.00	29.952 
14:55	79.9	79.9	80.4	47	57.8	2	5	292	0.00	29.952 
15:00	80.3	80.3	81.0	49	59.4	1	4	338	0.00	29.951 
15:05	79.6	79.6	80.3	48	58.2	2	4	292	0.00	29.951 
15:10	79.6	79.6	80.1	46	57.0	2	6	292	0.00	29.951 
15:15	79.9	79.9	80.4	47	57.8	2	4	315	0.00	29.953 
15:20	80.3	80.3	80.8	47	58.2	1	5	315	0.00	29.953 
15:25	80.3	80.3	80.9	48	58.8	3	6	315	0.00	29.953 
15:30	80.5	80.5	81.0	48	59.0	2	5	338	0.00	29.953 
15:35	80.3	80.3	80.7	46	57.6	2	5	0	0.00	29.953 
15:40	79.8	79.8	80.5	49	58.9	1	3	315	0.00	29.953 
15:45	80.3	80.3	80.9	48	58.8	0	2	315	0.00	29.952 
15:50	80.3	80.3	80.5	44	56.4	3	6	292	0.00	29.952 
15:55	80.7	80.7	81.0	46	58.0	1	5	315	0.00	29.952 
16:00	81.1	81.1	81.1	44	57.1	2	4	315	0.00	29.948 
16:05	81.2	81.2	81.1	43	56.5	2	5	315	0.00	29.948 
16:10	81.1	81.1	81.0	43	56.5	2	6	315	0.00	29.948 
16:15	80.3	80.3	80.5	44	56.4	2	6	315	0.00	29.949 
16:20	79.4	79.4	79.9	45	56.2	2	5	292	0.00	29.949 
16:25	79.4	79.4	80.1	47	57.4	2	5	292	0.00	29.949 
16:30	79.6	79.6	80.0	45	56.4	3	6	292	0.00	29.949 
16:35	80.1	80.1	80.4	45	56.8	2	6	292	0.00	29.949 
16:40	79.9	79.9	80.3	45	56.6	2	4	292	0.00	29.949 
16:45	79.8	79.8	80.4	47	57.8	1	4	292	0.00	29.950 
16:50	80.1	80.1	80.5	46	57.4	2	4	315	0.00	29.950 
16:55	79.6	79.6	80.1	46	57.0	1	4	315	0.00	29.950 
17:00	79.6	79.6	80.1	46	57.0	2	5	315	0.00	29.948 
17:05	79.4	79.4	80.0	46	56.8	1	4	315	0.00	29.948 
17:10	79.0	79.0	79.8	48	57.6	2	6	315	0.00	29.948 
17:15	78.6	78.6	79.6	49	57.8	2	6	292	0.00	29.950 
17:20	78.3	78.3	79.5	51	58.7	1	6	338	0.00	29.950 
17:25	78.5	78.5	79.6	50	58.3	2	6	315	0.00	29.950 
17:30	77.9	77.9	79.2	50	57.7	2	5	270	0.00	29.950 
17:35	78.1	78.1	79.3	50	57.9	2	5	315	0.00	29.950 
17:40	78.6	78.6	79.7	50	58.4	1	4	338	0.00	29.950 
17:45	78.8	78.8	79.9	51	59.1	0	2	338	0.00	29.949 
17:50	78.3	78.3	79.5	51	58.7	1	4	338	0.00	29.949 
17:55	77.9	77.9	79.3	52	58.8	1	4	338	0.00	29.949 
18:00	78.5	78.5	79.7	52	59.4	2	5	315	0.00	29.950 
18:05	79.0	79.0	80.2	53	60.4	1	5	338	0.00	29.950 
18:10	79.4	79.4	80.2	49	58.5	2	5	292	0.00	29.950 
18:15	79.6	79.6	80.3	48	58.2	3	7	315	0.00	29.953 
18:20	78.8	78.8	79.7	48	57.4	3	7	315	0.00	29.953 
18:25	78.5	78.5	79.5	48	57.2	3	6	292	0.00	29.953 
18:30	78.5	78.5	79.4	47	56.6	3	6	292	0.00	29.954 
18:35	78.5	78.5	79.5	48	57.2	2	7	292	0.00	29.954 
18:40	78.3	78.3	79.4	49	57.5	3	5	315	0.00	29.954 
18:45	78.1	78.1	79.3	49	57.4	3	6	315	0.00	29.953 
18:50	77.9	77.9	79.2	50	57.7	2	5	270	0.00	29.953 
18:55	77.9	77.9	79.1	48	56.6	2	6	292	0.00	29.953 
19:00	77.7	77.7	79.0	49	57.0	2	4	315	0.00	29.952 
19:05	77.6	77.6	78.9	49	56.9	2	6	315	0.00	29.952 
19:10	77.4	77.4	78.8	50	57.3	2	5	315	0.00	29.952 
19:15	77.2	77.2	78.7	50	57.1	2	6	315	0.00	29.952 
19:20	77.0	77.0	78.6	51	57.5	1	5	338	0.00	29.952 
19:25	76.8	76.8	78.5	51	57.3	1	4	338	0.00	29.952 
19:30	76.7	76.7	78.4	51	57.2	3	5	270	0.00	29.958 
19:35	76.7	76.7	78.4	51	57.2	2	6	270	0.00	29.958 
19:40	76.5	76.5	78.4	52	57.5	1	4	292	0.00	29.958 
19:45	76.3	76.3	78.2	53	57.9	2	4	292	0.00	29.961 
19:50	76.1	76.1	78.1	53	57.7	2	5	270	0.00	29.961 
19:55	75.8	75.8	78.0	54	57.9	1	5	292	0.00	29.961 
20:00	75.6	75.6	77.9	54	57.8	1	3	292	0.00	29.964 
20:05	75.4	75.4	77.8	54	57.6	1	3	292	0.00	29.964 
20:10	75.1	75.1	77.6	54	57.3	0	2	315	0.00	29.964 
20:15	74.9	74.9	74.9	54	57.1	1	4	292	0.00	29.966 
20:20	74.7	74.7	74.7	54	56.9	1	4	292	0.00	29.966 
20:25	74.4	74.4	74.4	54	56.7	1	4	315	0.00	29.966 
20:30	74.0	74.0	74.0	55	56.8	1	4	292	0.00	29.969 
20:35	73.9	73.9	73.9	55	56.7	1	3	315	0.00	29.969 
20:40	73.5	73.5	73.5	56	56.8	1	5	292	0.00	29.969 
20:45	73.3	73.3	73.3	56	56.6	1	3	292	0.00	29.971 
20:50	73.0	73.0	73.0	57	56.9	1	3	292	0.00	29.971 
20:55	72.8	72.8	72.8	58	57.1	1	3	292	0.00	29.971 
21:00	72.7	72.7	72.7	58	57.1	0	2	292	0.00	29.974 
21:05	72.3	72.3	72.3	59	57.2	0	1	292	0.00	29.974 
21:10	72.1	72.1	72.1	60	57.4	0	2	292	0.00	29.974 
21:15	71.8	71.8	71.8	60	57.2	0	2	292	0.00	29.977 
21:20	71.6	71.6	71.6	61	57.4	0	2	292	0.00	29.977 
21:25	71.5	71.5	71.5	61	57.3	0	1	292	0.00	29.977 
21:30	71.1	71.1	71.1	62	57.4	0	2	292	0.00	29.984 
21:35	70.9	70.9	70.9	62	57.2	0	1	292	0.00	29.984 
21:40	70.8	70.8	70.8	63	57.6	0	1	292	0.00	29.984 
21:45	70.6	70.6	70.6	63	57.4	1	2	292	0.00	29.989 
21:50	70.4	70.4	70.4	64	57.6	0	1	292	0.00	29.989 
21:55	70.3	70.3	70.3	64	57.5	0	2	292	0.00	29.989 
22:00	70.1	70.1	70.1	64	57.3	0	1	292	0.00	29.997 
22:05	69.9	69.9	69.9	65	57.6	0	2	292	0.00	29.997 
22:10	69.8	69.8	69.8	65	57.5	0	2	292	0.00	29.997 
22:15	69.6	69.6	69.6	66	57.7	0	1	292	0.00	29.995 
22:20	69.4	69.4	69.4	66	57.5	0	2	292	0.00	29.995 
22:25	69.3	69.3	69.3	67	57.9	0	1	292	0.00	29.995 
22:30	69.1	69.1	69.1	67	57.7	0	1	292	0.00	29.997 
22:35	68.9	68.9	68.9	68	57.9	0	1	292	0.00	29.997 
22:40	68.8	68.8	68.8	69	58.2	0	1	292	0.00	29.997 
22:45	68.4	68.4	68.4	70	58.2	0	1	292	0.00	29.997 
22:50	68.3	68.3	68.3	70	58.1	0	3	292	0.00	29.997 
22:55	68.1	68.1	68.1	71	58.3	0	3	292	0.00	29.997 
23:00	68.1	68.1	68.1	72	58.7	0	2	292	0.00	30.000 
23:05	67.9	67.9	67.9	73	58.9	0	2	292	0.00	30.000 
23:10	67.8	67.8	67.8	74	59.2	0	1	292	0.00	30.000 
23:15	67.6	67.6	67.6	74	59.0	0	2	292	0.00	29.999 
23:20	67.4	67.4	67.4	75	59.2	0	1	292	0.00	29.999 
23:25	67.3	67.3	67.3	75	59.1	0	1	292	0.00	29.999 
23:30	67.1	67.1	67.1	76	59.3	0	1	292	0.00	30.000 
23:35	66.9	66.9	66.9	77	59.4	0	1	292	0.00	30.000 
23:40	66.9	66.9	66.9	77	59.4	0	2	292	0.00	30.000 
23:45	66.8	66.8	66.8	77	59.3	0	2	292	0.00	30.001 
23:50	66.8	66.8	66.8	78	59.7	0	2	292	0.00	30.001 
23:55	66.6	66.6	66.6	78	59.5	0	2	292	0.00	30.001 

CoCoRaHS
IN-AL-39
A2 Web Hosting
Creative Commons License
GoDaddy
search engine by freefind advanced

loaded 2018-11-17 14:00:48 • last modified 2010-11-18 10:43:29
Privacy PolicyDisclaimer
• wx.awcolley.com is powered by PmWiki v.2002016 •
• all content (unless otherwise noted) © 2018 A W Colley